Regional Weather Roundup
Issued by NWS

Home | Current Version | Previous Version | Graphics & Text | Print | Product List | Glossary On
Versions: 1 2 3 4 5 6 7 8 9 10 11 12 13 14 15 16 17 18 19 20 21 22 23 24 25 26 27 28 29 30 31 32 33 34 35 36 37 38 39 40 41 42 43 44 45 46 47 48 49 50
000
ASUS43 KDTX 210501
RWRMI
MICHIGAN HOURLY REGIONAL WEATHER ROUNDUP
NATIONAL WEATHER SERVICE DETROIT/PONTIAC MI
100 AM EDT SAT OCT 21 2017

NOTE: "FAIR" INDICATES FEW OR NO CLOUDS BELOW 12,000 FEET WITH NO
SIGNIFICANT WEATHER AND/OR OBSTRUCTION TO VISIBILITY.

MIZ047>049-052>055-059>063-066>070-074>076-081>083-210600-
SOUTHEAST LOWER MICHIGAN

CITY           SKY/WX    TMP DP  RH WIND       PRES   REMARKS
ADRIAN         CLEAR     55  49  80 CALM      30.17S
ALMA           CLOUDY    58  50  75 SE6       30.11S
ANN ARBOR      CLEAR     47  46  97 CALM      30.16S
BAD AXE        CLEAR     55  46  69 S8        30.14R
CARO           CLEAR     59  47  64 SW5       30.12S
DETROIT CITY   CLEAR     61  46  57 S6        30.16S
DETROIT        MOCLDY    55  46  71 CALM      30.17R
FLINT          CLEAR     61  49  64 S7        30.14S
GROSSE ILE     CLEAR     59  53  80 S8        30.16S
HILLSDALE      CLEAR     59  48  67 S7        30.16R
HOWELL         CLEAR     58  50  77 S6        30.15R

CITY           SKY/WX    TMP DP  RH WIND       PRES   REMARKS
JACKSON        CLEAR     57  50  77 S8        30.15R
LAMBERTVILLE   CLEAR     60  47  62 S3        30.16S
LANSING        CLEAR     59  50  72 S7        30.13S
LAPEER         FAIR      47  44  91 CALM      30.15S
MASON          CLEAR     59  51  73 S3        30.14R
MONROE         CLEAR     59  44  58 S3        30.16S
MT. CLEMENS    CLEAR     50  50  99 CALM      30.15R
PONTIAC        CLEAR     51  46  83 CALM      30.16R
PORT HOPE        N/A     62  47  57 SW6       30.10S
PORT HURON     CLEAR     46  45  93 CALM      30.16S
TRI CITIES     CLEAR     59  51  75 S6        30.12S
MIDLAND        FAIR      58  50  76 CALM      30.10S
TROY           CLEAR     56  46  70 SW3       30.18S
SAGINAW HB     CLEAR     57  50  77 S6        30.11S
$$
MIZ043>046-050>051-056>058-064>065-071>073-077>080-210600-
SOUTHWEST LOWER MICHIGAN

CITY           SKY/WX    TMP DP  RH WIND       PRES   REMARKS
BATTLE CREEK   CLOUDY    60  50  69 S12       30.13R
BENTON HARBOR  CLOUDY    62  48  60 S7        30.10R
BIG RAPIDS     CLOUDY    53  48  83 CALM      30.09R
COLDWATER      CLOUDY    58  50  74 S6        30.14S
FREMONT        FAIR      60  50  70 S5        30.07S
HOLLAND        PTCLDY    58  50  75 S7        30.09S
GRAND RAPIDS   CLOUDY    60  52  74 S9        30.09F
IONIA          FAIR      54  49  84 S3        30.10S
KALAMAZOO      CLOUDY    58  48  69 S6        30.12S
LUDINGTON      MOCLDY    65  49  56 S10       30.04S
MARSHALL       PTCLDY    58  49  72 S3        30.13S
MOUNT PLEASANT CLOUDY    55  49  81 S3        30.09S
MUSKEGON       CLOUDY    68  49  50 S14       30.07S
SOUTH HAVEN    PTCLDY    62  49  63 S3        30.09S
$$
MIZ016>042-210600-
NORTHERN LOWER MICHIGAN

CITY           SKY/WX    TMP DP  RH WIND       PRES   REMARKS
ALPENA         PTCLDY    47  46  97 CALM      30.07R
BEAVER ISLAND  PTCLDY    66  51  59 S8        30.00S
BELLAIRE       PTCLDY    48  46  95 CALM      30.04S
CADILLAC       CLOUDY    58  48  69 SW7       30.08R
CHARLEVOIX     CLEAR     63  50  62 SE5       30.05R
FRANKFORT      CLOUDY    68  51  55 S10       30.02S
GAYLORD        CLEAR     56  46  69 S6        30.07S
GRAYLING       PTCLDY    59  47  65 S7        30.08S
HARBOR SPRINGS CLEAR     64  48  56 SW7       30.03R
HOUGHTON LAKE  PTCLDY    54  49  83 CALM      30.09S
MANISTEE       CLOUDY    54  50  86 CALM      30.03S
OSCODA         CLOUDY    54  49  83 SW7       30.09R
PELLSTON       CLEAR     65  49  56 SW9       30.03R
ROGERS CITY    PTCLDY    61  49  63 SW9       30.05R
TRAVERSE CITY  CLOUDY    68  49  50 VRB3      30.02R
$$
MIZ007>008-015-210600-
EASTERN UPPER MICHIGAN

CITY           SKY/WX    TMP DP  RH WIND       PRES   REMARKS
KINROSS        CLEAR     58  52  80 S5        30.02R
MACKINAC ISLAN CLEAR     64  48  56 S8        30.02S
NEWBERRY       PTCLDY    56  55  97 S7        29.99R
S. S. MARIE    PTCLDY    55  51  86 E6        30.01R
MUNISING         N/A     61  53  75 S8        29.93R
$$
MIZ004>006-011>014-085-210600-
CENTRAL UPPER MICHIGAN

CITY           SKY/WX    TMP DP  RH WIND       PRES   REMARKS
MANISTIQUE     MOCLDY    56  50  81 S3        29.98R
ESCANABA       PTCLDY    58  54  86 S7        29.96R
MENOMINEE      CLOUDY    64  51  62 SW10      29.96R
SAWYER-GWINN   PTCLDY    55  48  77 S9        29.93S
$$
MIZ001>003-009>011-084-210600-
WESTERN UPPER MICHIGAN

CITY           SKY/WX    TMP DP  RH WIND       PRES   REMARKS
IRON MOUNTAIN  PTCLDY    58  45  62 S7        29.92S
HOUGHTON       CLOUDY    63  43  48 S10       29.83S
COPPER HARBOR    N/A     64  45  49 SW10G18   29.81S
IRONWOOD       CLOUDY    66  44  45 S12G20    29.80F
$$

ABBREVIATIONS USED IN REMARKS
   TC - TEMPERATURE IN CELSIUS
  WCI - WIND CHILL INDEX
   HX - HEAT INDEX
  VSB - VISIBILITY





USA.gov is the U.S. government's official web portal to all federal, state and local government web resources and services.